This is the latest recevied weather packets stored in our database for station/object KD2SIG. If no packets are shown the sender has not sent any weather packets the latest 10 day(s).
| Time | Temp. | Humidity | Pressure | Rain* | Wind** | Luminosity | Snow |
|---|---|---|---|---|---|---|---|
| 1777869621 | 7.78° C | 94% | 1009.3 hPa | 0 mm | - | 0 W/m² | - |
| 1777869318 | 7.78° C | 94% | 1009.4 hPa | 0 mm | - | 0 W/m² | - |
| 1777869015 | 7.78° C | 94% | 1009.5 hPa | 0 mm | - | 0 W/m² | - |
| 1777868712 | 7.78° C | 94% | 1009.6 hPa | 0 mm | - | 0 W/m² | - |
| 1777868409 | 7.78° C | 93% | 1009.6 hPa | 1.78 mm | - | 0 W/m² | - |
| 1777868105 | 7.78° C | 93% | 1009.7 hPa | 0 mm | - | 0 W/m² | - |
| 1777867801 | 7.78° C | 93% | 1009.6 hPa | 0 mm | - | 0 W/m² | - |
| 1777867499 | 7.78° C | 93% | 1009.6 hPa | 1.27 mm | - | 0 W/m² | - |
| 1777867194 | 7.78° C | 93% | 1009.5 hPa | 4.32 mm | - | 0 W/m² | - |
| 1777866892 | 7.78° C | 92% | 1009.6 hPa | 1.27 mm | - | 0 W/m² | - |
| 1777866588 | 7.78° C | 92% | 1009.7 hPa | 0 mm | - | 0 W/m² | - |
| 1777866286 | 7.78° C | 92% | 1009.5 hPa | 0 mm | - | 0 W/m² | - |
| 1777865983 | 7.78° C | 92% | 1009.6 hPa | 0 mm | - | 0 W/m² | - |
| 1777865681 | 7.22° C | 92% | 1009.4 hPa | 0 mm | - | 0 W/m² | - |
| 1777865378 | 7.78° C | 92% | 1009.4 hPa | 0 mm | - | 0 W/m² | - |
| 1777865075 | 7.22° C | 92% | 1009.4 hPa | 0 mm | - | 0 W/m² | - |
| 1777864771 | 7.22° C | 91% | 1009.2 hPa | 0 mm | - | 0 W/m² | - |
| 1777864468 | 7.22° C | 91% | 1009.3 hPa | 0 mm | - | 0 W/m² | - |
| 1777864165 | 7.22° C | 91% | 1009.4 hPa | 0 mm | - | 0 W/m² | - |
| 1777863862 | 7.22° C | 91% | 1009.4 hPa | 0 mm | - | 0 W/m² | - |
| 1777863558 | 7.22° C | 91% | 1009.5 hPa | 0 mm | - | 0 W/m² | - |
| 1777863255 | 7.22° C | 91% | 1009.6 hPa | 0 mm | - | 0 W/m² | - |
| 1777862952 | 7.22° C | 90% | 1009.6 hPa | 0 mm | - | 0 W/m² | - |
| 1777862649 | 7.22° C | 90% | 1009.4 hPa | 0 mm | - | 0 W/m² | - |
| 1777862346 | 7.22° C | 90% | 1009.5 hPa | 0 mm | - | 0 W/m² | - |
* Rain latest hour (hover to see other rain measurements)
** Current wind speed in m/s (hover to see current wind gust speed)